Regional Weather Roundup
Issued by NWS Sioux Falls, SD

Home | Current Version | Previous Version | Text Only | Print | Product List | Glossary On
Versions: 1 2 3 4 5 6 7 8 9 10 11 12 13 14 15 16 17 18 19 20 21 22 23 24 25 26 27 28 29 30 31 32 33 34 35 36 37 38 39 40 41 42 43 44 45 46 47 48 49 50
000
ASUS43 KFSD 021310
RWRFSD

WEATHER ROUNDUP FOR SE SOUTH DAKOTA/SW MINNESOTA/NW IOWA
NATIONAL WEATHER SERVICE SIOUX FALLS SD
700 AM CST MON MAR 02 2015

NOTE: "FAIR" INDICATES FEW OR NO CLOUDS BELOW 12,000 FEET WITH NO
SIGNIFICANT WEATHER AND OR OBSTRUCTIONS TO VISIBILITY.


SDZ038>040-050-052>070-021400-
SOUTHEAST SOUTH DAKOTA

CITY           SKY/WX    TMP DP  RH WIND       PRES   REMARKS
CHAMBERLAIN    PTCLDY    13   9  85 SE10      30.31F WCI   0
HURON          PTCLDY     8   6  92 S8        30.38F WCI  -4
MADISON        FLURRIES   5   5 100 S8        30.38S WCI  -8
MITCHELL       PTCLDY    10   8  92 S7        30.40F WCI  -1
SIOUX FALLS    PTCLDY     2  -3  80 CALM      30.41F
WINNER         PTSUNNY   23   7  50 S14       30.25F WCI  11
YANKTON        PTCLDY    12   9  85 E3        30.44S
$$

MNZ071-072-080-081-089-090-097-098-021400-
SOUTHWEST MINNESOTA

CITY           SKY/WX    TMP DP  RH WIND       PRES   REMARKS
FAIRMONT       PTCLDY     1  -2  85 SW5       30.46S WCI  -8
JACKSON          N/A      3  -2  78 S3        30.44S HAZE
LUVERNE        PTCLDY     3   0  85 CALM      30.43F
MARSHALL       PTCLDY     0  -6  78 SW3       30.43F
MONTEVIDEO     FAIR       3   0  85 W6        30.44F WCI  -8
PIPESTONE      CLEAR      3   1  92 CALM      30.39F
REDWOOD FALLS  PTCLDY     4   0  83 CALM      30.44F
TRACY          PTCLDY     5   1  83 SW7       30.43F WCI  -7
WINDOM         PTCLDY    -2  -6  84 CALM      30.43F
WORTHINGTON    PTCLDY     9   1  72 S5        30.44F WCI   0
$$

IAZ001>003-012>014-020>022-031-032-NEZ013-014-SDZ071-021400-
NORTHWEST IOWA

CITY           SKY/WX    TMP DP  RH WIND       PRES   REMARKS
CHEROKEE       PTCLDY     4   1  91 CALM      30.47F
DENISON        PTCLDY     9   7  92 CALM      30.45F
ESTHERVILLE    PTCLDY     2  -2  83 CALM      30.45S
LE MARS        PTCLDY     7   5  92 CALM      30.46F
ORANGE CITY    PTCLDY    12   9  85 CALM      30.43F
SHELDON        CLEAR      1  -2  85 E5        30.43F WCI  -8
SIOUX CITY     PTCLDY    11   7  84 SE3       30.46F
SPENCER        CLEAR      0  -5  79 S3        30.46S
STORM LAKE     PTCLDY     7   5  92 SE5       30.45F FOG     WCI  -2
$$

ABBREVIATIONS USED IN REMARKS
   TC - TEMPERATURE IN CELSIUS
  WCI - WIND CHILL INDEX
   HX - HEAT INDEX
  VSB - VISIBILITY



USA.gov is the U.S. government's official web portal to all federal, state and local government web resources and services.